Flag for U.S.A. Weather past 2 weeks in Laredo, Texas, U.S.A.

Now
78 °F

Clear.


Feels Like: 80 °F
Forecast: 77 / 93 °F
Wind: 12 mph from Southeast

Location: Laredo International Airport

Current Time: May 28, 2015 at 3:18:59 AM

Latest Report: May 28, 2015 at 2:56 AM


Visibility: 9 mi

Pressure: 29.93 "Hg

Humidity: 88%

Dew point: 74 °F

Location of LaredoLocation

Historic Weather in Laredo — Graph

°F

Laredo temperature yesterday

Maximum temperature yesterday: 92 °F (at 3:56 PM)
Minimum temperature yesterday: 78 °F (at 6:56 AM)
Average temperature yesterday: 84 °F

Past Weeks' High & Low Weather Summary

 TemperatureHumidityPressure
High94 °F (May 16, 3:56 PM)100% (May 13, 5:04 AM)30.06 "Hg (May 13, 5:04 AM)
Low68 °F (May 23, 10:00 PM)44% (May 19, 3:56 PM)29.70 "Hg (May 16, 5:56 PM)
Average81 °F76%29.90 "Hg
* Reported May 13 1:56 AM — May 28 1:56 AM, Laredo, Weather by CustomWeather, © 2015

Note: Actual official high and low records may vary slightly from our data, if they occured in-between our weather recording intervals... More about our weather records

Advertising

Laredo weather history for previous 24 hours

 ConditionsComfort  
Time TempWeatherWind HumidityBarometerVisibility
1:56 AM
Thu, May 28
79 °FMostly cloudy.10 mph84%29.96 "Hg10 mi
12:56 AM79 °FMostly cloudy.10 mph84%29.98 "Hg10 mi
11:56 PM
Wed, May 27
79 °FClear.13 mph84%29.97 "Hg10 mi
10:56 PM80 °FClear.14 mph82%29.95 "Hg10 mi
9:56 PM82 °FClear.13 mph77%29.93 "Hg10 mi
8:56 PM84 °FSunny.15 mph70%29.93 "Hg10 mi
7:56 PM88 °FPassing clouds.14 mph57%29.91 "Hg10 mi
6:56 PM89 °FPassing clouds.15 mph57%29.90 "Hg10 mi
5:56 PM92 °FSunny.17 mph49%29.90 "Hg10 mi
4:56 PM92 °FPassing clouds.13 mph49%29.90 "Hg10 mi
3:56 PM92 °FScattered clouds.12 mph49%29.93 "Hg10 mi
2:56 PM91 °FScattered clouds.14 mph49%29.95 "Hg10 mi
1:56 PM90 °FPartly sunny.13 mph52%29.97 "Hg10 mi
12:56 PM89 °FPassing clouds.16 mph55%29.98 "Hg10 mi
11:56 AM86 °FPartly sunny.13 mph61%29.99 "Hg10 mi
10:56 AM85 °FPartly sunny.15 mph63%29.99 "Hg10 mi
9:56 AM83 °FPassing clouds.16 mph70%29.97 "Hg8 mi
8:56 AM82 °FSunny.15 mph77%29.95 "Hg7 mi
7:56 AM79 °FSunny.15 mph84%29.95 "Hg5 mi
6:56 AM78 °FFog.10 mph88%29.94 "Hg5 mi
5:56 AM80 °FPassing clouds.9 mph84%29.93 "Hg7 mi
4:56 AM80 °FOvercast.8 mph84%29.91 "Hg7 mi
3:56 AM80 °FOvercast.7 mph84%29.90 "Hg8 mi
Weather by CustomWeather, © 2015

See weather overviewHow to use our weather pages